{"data":{"norad_id":65224,"intl_designator":"2025-176AC","name":"STARLINK-34975","alt_names":[],"object_type":"PAYLOAD","status":"ACTIVE","operator":null,"country":"US","launch_date":"2025-08-14","launch_site_code":"AFETR","launch_vehicle":null,"mission":null,"orbit_class":"UNKNOWN","rcs_meters":null,"size_class":null,"mass_kg":null,"dimensions":null,"purposes":["comms"],"wikipedia_slug":null,"has_3d_model":false,"image_url":null,"decayed_at":null,"tle_current":{"epoch":"2026-05-25T00:20:10.946112Z","epoch_age_seconds":73865,"freshness":"FRESH","line1":"1 65224U 25176AC  26145.01401558  .00017871  00000+0  53874-3 0  9995","line2":"2 65224  53.1591 157.6704 0001252  81.5627 278.5517 15.34403496 44815","mean_motion":15.34403496,"eccentricity":0.0001252,"inclination_deg":53.1591,"raan_deg":157.6704,"arg_perigee_deg":81.5627,"mean_anomaly_deg":278.5517,"bstar":0.00053874,"rev_number":4481,"period_min":93.847544257681,"perigee_km":461.83637748094,"apogee_km":463.54932127523,"semimajor_km":6840.8298493781,"source":"CELESTRAK","updated_at":"2026-05-25T13:38:20.723353Z"}}}